User: anonymous   Login
Location: STAR School
(35.3054°N, 111.2976°W)
Time: 08:23:15
(UTC-07:00)
Language:

Vanguard 1 Rocket - Orbit

View from above orbital plane
View from above orbital plane
View from above satellite
View from above satellite

Ground track
Ground track

The orbit data is extracted from the following two-line orbital elements,

1    16U 58002A   19142.47976652  .00000015  00000-0  41752-4 0  9994
2    16  34.2594 206.4821 2025782  24.9915 343.6373 10.48746843417674
Epoch (UTC): 22 May 2019 11:30:51
Eccentricity: 0.2025782
inclination: 34.2594°
perigee height: 652 km
apogee height: 4224 km
right ascension of ascending node: 206.4821°
argument of perigee: 24.9915°
revolutions per day: 10.48746843
mean anomaly at epoch: 343.6373°
orbit number at epoch: 41767

The dashed part of the orbit path shows where the satellite is in the earth's shadow,  

DLR